Regional Weather Roundup
Issued by NWS Portland, ME

Current Version | Previous Version | Text Only | Print | Product List | Glossary Off
Versions: 1 2 3 4 5 6 7 8 9 10 11 12 13 14 15 16 17 18 19 20 21 22 23 24 25 26 27 28 29 30 31 32 33 34 35 36 37 38 39 40 41 42 43 44 45 46 47 48 49 50
000 ASUS41 KGYX 181610 RWRGYX WEATHER ROUNDUP FOR MAINE AND NEW HAMPSHIRE NATIONAL WEATHER SERVICE GRAY ME 1100 AM EST MON DEC 18 2017 MEZ002-005-006-010-012-015-018-020-021-024-026-027-029-181700- MAINE CITY SKY/WX TMP DP RH WIND PRES REMARKS PORTLAND LGT SNOW 19 13 77 W5 30.13F SANFORD FLURRIES 22 17 81 S3 30.11F BAR HARBOR CLOUDY 19 10 68 N3 30.15F WISCASSET LGT SNOW 17 13 84 W5 30.13F FOG ROCKLAND LGT SNOW 29 24 82 S8 30.11F FRYEBURG CLOUDY 14 8 77 CALM 30.08F LEWISTONAUBURN CLOUDY 15 10 80 CALM 30.11F AUGUSTA CLOUDY 14 6 70 CALM 30.11F WATERVILLE FLURRIES 16 10 77 CALM 30.07F BANGOR CLOUDY 13 4 67 S3 30.13F GREENVILLE N/A 8 0 69 SE6 29.95F MILLINOCKET CLOUDY 9 2 73 SE6 30.10F HOULTON CLOUDY 7 -2 66 S6 30.08F PRESQUE ISLE PTSUNNY 8 0 69 NE3 30.08F FRENCHVILLE CLOUDY 1 -3 83 CALM 30.01F CARIBOU CLOUDY 3 -3 76 CALM 30.05F $$ NHZ002-005-008-009-011-012-014-181700- NEW HAMPSHIRE CITY SKY/WX TMP DP RH WIND PRES REMARKS PORTSMOUTH CLOUDY 21 14 72 CALM 30.10F ROCHESTER CLOUDY 20 16 84 CALM 30.09F NASHUA CLOUDY 26 13 57 CALM 30.10F MANCHESTER CLOUDY 23 11 60 CALM 30.09F CONCORD CLOUDY 20 14 77 CALM 30.10F LACONIA LGT SNOW 22 16 78 W3 30.08F PLYMOUTH LGT SNOW 15 11 84 CALM 30.09F BERLIN CLOUDY 7 3 84 CALM 30.00F WHITEFIELD CLOUDY 10 6 84 CALM 30.00F JAFFREY CLOUDY 25 14 63 SW5 30.03F KEENE FLURRIES 21 17 84 CALM 30.08F LEBANON CLOUDY 17 12 80 CALM 30.05F MT WASHINGTON SNOW 18 18 100 W48 N/A VSB 0 WCI -6 $$ VTZ005-007-008-181700- VERMONT CITY SKY/WX TMP DP RH WIND PRES REMARKS ST JOHNSBURY N/A 10 7 87 MISG 30.02F MONTPELIER LGT SNOW 13 11 92 N3 30.01F FOG BURLINGTON CLOUDY 28 18 66 S10 29.99F WCI 19 $$ MAZ007-012-024-CTZ003-RIZ002-NYZ038-NYZ072-181700- SOUTHERN NEW ENGLAND AND NY CITY SKY/WX TMP DP RH WIND PRES REMARKS BOSTON CLOUDY 30 12 47 SE5 30.11F WORCESTER CLOUDY 26 14 60 S6 30.03F NANTUCKET CLOUDY 37 25 61 SE7 30.12F PROVIDENCE CLOUDY 32 19 58 CALM 30.10F HARTFORD CLOUDY 30 14 51 CALM 30.09F ALBANY FLURRIES 26 17 68 N3 30.07F NEW YORK CITY CLOUDY 39 32 76 VRB5 30.09F $$ ANZ081-ANZ082-ANZ150-NHZ014-MEZ023>029-181700- COASTAL MARINE OBSERVATIONS STATION/POSITION TIME TEMP WIND PRES WAVE AIR SEA DIR/SP/G HT/PER (UTC) (F) (DEG/KT/KT) (MB) (FT/S) MOUNT DESERT ROC 1600 29 170/ 13/ 16 1020.4F MATINICUS ROCK 1500 29 190/ 11/ 13 1020.6F ISLE OF SHOALS 1500 24 320/ 1/ 3 1021.1F JEFFREYS LEDGE 1536 47 N/A 1/10 GEORGES BANK BUO 1450 39 51 1022.3 4/ 7 $$ .............KEY.............. WCI - WIND CHILL TC - TEMPERATURE IN CELSIUS VSB - VISIBILITY IN MILES HX - HEAT INDEX FAIR- INDICATES FEW OR NO CLOUDS BELOW 12,000 FT, WITH NO SIGNIFICANT WEATHER AND/OR OBSTRUCTIONS TO VISIBILITY.

USA.gov is the U.S. government's official web portal to all federal, state and local government web resources and services.